Back to catalog

COSMOS 2251 DEB

AliveLEO
NORAD 35671·DEBRIS·🇷🇺 Russia

Launched Jun 16, 1993 from Plesetsk Cosmodrome

Loading…

Next Passes (next 24 hours)

TLE

FreshSource: Space-Track

Epoch: Sep 13, 2026, 20:13 UTC

1 35671U 93036APN 26256.84266721  .00000310  00000-0  88951-4 0  9999
2 35671  74.0154 283.3352 0039615  27.4571 145.8677 14.48683975907460

Track COSMOS 2251 DEB in real time with AllMySat

Download on the App Store